Regional Weather Roundup
Issued by NWS

Home | Current Version | Previous Version | Text Only | Print | Product List | Glossary Off
Versions: 1 2 3 4 5 6 7 8 9 10 11 12 13 14 15 16 17 18 19 20 21 22 23 24 25 26 27 28 29 30 31 32 33 34 35 36 37 38 39 40 41 42 43 44 45 46 47 48 49 50

000
ASUS45 KBOU 231207
RWRCO

WEATHER ROUNDUP FOR COLORADO
NATIONAL WEATHER SERVICE DENVER/BOULDER CO
600 AM MDT TUE SEP 23 2014

NOTE: "FAIR" INDICATES FEW OR NO CLOUDS BELOW 12000 FEET WITH NO
SIGNIFICANT WEATHER AND/OR OBSTRUCTIONS TO VISIBILITY.

COZ001>005-013-030-031-231300-
...NORTHWEST COLORADO...

CITY           SKY/WX    TMP DP  RH WIND       PRES   REMARKS
CRAIG          CLOUDY    52  49  89 CALM      30.24S
HAYDEN         CLOUDY    52  46  82 E5        30.25S
MEEKER         CLOUDY    52  47  83 SE6       30.26S
MOUNT WERNER   NOT AVBL
STEAMBOAT SPGS CLOUDY    49  48  96 CALM      30.26S
WALDEN         CLOUDY    46  45  93 NE5       30.30S
$$

COZ006>008-011-231300-
...WEST CENTRAL VALLEYS...

CITY           SKY/WX    TMP DP  RH WIND       PRES   REMARKS
GRAND JUNCTION MOCLDY    59  51  75 E14       30.18R
MONTROSE       PTCLDY    52  47  83 SE3       30.27R
EAGLE          CLOUDY    52  50  93 CALM      30.31S
RIFLE          CLOUDY    55  51  86 CALM      30.23R
DELTA          RAIN      60  56  85 W7        30.24R
NUCLA          PTCLDY    50  43  76 E8        30.29S
$$

COZ017>023-064>068-231300-
...SOUTHWEST COLORADO...

CITY           SKY/WX    TMP DP  RH WIND       PRES   REMARKS
DURANGO        CLEAR     47  41  80 NE6       30.31S
CORTEZ         CLEAR     44  42  93 E3        30.26S
PAGOSA SPRINGS CLOUDY    48  46  90 CALM      30.38S
TELLURIDE      NOT AVBL
WOLF CREEK PAS FOG       36  36 100 SW13      30.57F VSB 1/4
$$

COZ009-010-012-014-032>034-037-058>063-231300-
...CENTRAL COLORADO...

CITY           SKY/WX    TMP DP  RH WIND       PRES   REMARKS
ASPEN          CLOUDY    47  43  86 S5        30.34R
BUENA VISTA    PTCLDY    41  39  93 SW3       30.33R
COPPER MTN     MOCLDY    43  36  75 W24G31    30.54S
BERTHOUD PASS  MOCLDY    34  32  93 W33G41    30.51F WCI  19
COTTONWOOD PAS PTCLDY    52  36  54 N6        30.42R
GUNNISON       MOCLDY    45  39  81 CALM      30.38R
KREMMLING      CLOUDY    50  43  76 CALM      30.32S
LEADVILLE      CLOUDY    48  37  65 N6        30.42S
MONARCH PASS   FOG       37  37 100 W30       30.62F VSB<1/4
SALIDA         PTCLDY    53  44  72 N6        30.37S
SUNLIGHT       CLOUDY    45  43  93 CALM      30.50S
WILKERSON PASS NOT AVBL
$$

COZ069>075-231300-
...SAN LUIS VALLEY/SANGRE DE CRISTO MOUNTAINS...

CITY           SKY/WX    TMP DP  RH WIND       PRES   REMARKS
ALAMOSA        PTCLDY    38  37  97 CALM      30.33S
LA VETA PASS   PTCLDY    45  41  87 S5        30.46S
SAGUACHE       PTCLDY    45  41  87 N5        30.36R
$$

COZ035-036-038>040-231300-
...NORTHERN COLORADO FRONT RANGE...

CITY           SKY/WX    TMP DP  RH WIND       PRES   REMARKS
DENVER INTL AP MOCLDY    56  49  77 S9        30.12F
DMNS CITY PARK   N/A     59  50  72 W3G9      30.13R
AURORA         PTCLDY    55  49  79 SE10      30.15S
FRONT RANGE AP MOCLDY    55  52  88 S5        30.14S
ERIE MUNI ARPT NOT AVBL
BOULDER MUN AP CLOUDY    59  50  72 CALM      30.11S
CENTENNIAL     MOCLDY    56  50  80 SE3       30.16S
BROOMFIELD     MOCLDY    57  50  77 SW6       30.15S
FORT COLLINS   MOCLDY    55  48  76 CALM      30.12S
LONGMONT       CLOUDY    59  49  71 CALM      30.13R
$$

COZ041-046-047-076>085-087-088-231300-
...PIKES PEAK/PALMER DIVIDE AND SOUTHERN FOOTHILLS...

CITY           SKY/WX    TMP DP  RH WIND       PRES   REMARKS
COLO. SPRINGS  PTCLDY    52  42  69 NW5       30.20S
A. F. ACADEMY  PTCLDY    44  40  88 N3        30.21F
ELLICOTT       NOT AVBL
FALCON         CLEAR     51  42  70 W8        30.23F
FORT CARSON    CLEAR     51  43  73 NW8       30.17S
LIMON          CLEAR     49  46  90 NW6       30.14S
MONUMENT HILL  MOCLDY    50  41  71 SW8       30.22S
TRINIDAD       CLEAR     59  52  77 W10       30.18R
$$

COZ042>045-048>051-090-091-231300-
...NORTHEAST COLORADO...

CITY           SKY/WX    TMP DP  RH WIND       PRES   REMARKS
GREELEY ARPT   CLOUDY    55  45  67 CALM      30.10F
AKRON          MOCLDY    57  55  93 W12       30.08S
BURLINGTON     PTCLDY    53  52  96 CALM      30.08R
WRAY           MOCLDY   N/A N/A N/A CALM      30.05S
STERLING       PTCLDY    59  57  94 SW8       30.04S
HOLYOKE        MOCLDY    59  54  82 SW9G16    30.02S
FORT MORGAN    PTCLDY    56  52  88 W5        30.09F
$$

COZ086-089-092>099-231300-
...SOUTHEAST COLORADO...

CITY           SKY/WX    TMP DP  RH WIND       PRES   REMARKS
PUEBLO         CLEAR     53  49  86 SW5       30.12R
LA JUNTA       MOCLDY    58  55  90 NW10      30.08R
LAMAR          CLEAR     54  53  97 SW6       30.04R
SPRINGFIELD      N/A     61  57  87 SW10      30.10R
$$


USA.gov is the U.S. government's official web portal to all federal, state and local government web resources and services.